,,Stat6,,Stat2,,Stat8,,Stat9,,Stat10,,Wind1,,Wind1,
time,status,PA1M_AVG,status,PR1M_SUM,status,RH1M_AVG,status,SR1M_AVG,status,TA1M_AVG,status,W1dAve1m,status,W1sAve1m,
2007-04-22, 00:00:00,VALID,918.041,VALID,0,VALID,100,VALID,-0.0679233,VALID,20.7969,VALID,38,VALID,0.534979,
2007-04-22, 00:01:00,VALID,918.034,VALID,0,VALID,100,VALID,-0.0509425,VALID,20.7937,VALID,38,VALID,0.477679,
2007-04-22, 00:02:00,VALID,918.022,VALID,0,VALID,100,VALID,-0.0169808,VALID,20.8132,VALID,38,VALID,0.418713,
2007-04-22, 00:03:00,VALID,918.004,VALID,0,VALID,100,VALID,-0.0679233,VALID,20.7675,VALID,38,VALID,0.277435,
2007-04-22, 00:04:00,VALID,917.995,VALID,0,VALID,100,VALID,-0.0509425,VALID,20.7612,VALID,38,VALID,0.0381541,
2007-04-22, 00:05:00,VALID,917.976,VALID,0,VALID,100,VALID,-0.0339617,VALID,20.7583,VALID,38,VALID,0.0517113,
2007-04-22, 00:06:00,VALID,917.984,VALID,0,VALID,100,VALID,-0.0509425,VALID,20.7285,VALID,38,VALID,0,
2007-04-22, 00:07:00,VALID,917.978,VALID,0,VALID,100,VALID,-0.0339617,VALID,20.7053,VALID,38,VALID,0,
2007-04-22, 00:08:00,VALID,917.983,VALID,0,VALID,100,VALID,-0.0509425,VALID,20.7096,VALID,38,VALID,0,
2007-04-22, 00:09:00,VALID,917.984,VALID,0,VALID,100,VALID,-0.0509425,VALID,20.7255,VALID,38,VALID,0.0379972,
2007-04-22, 00:10:00,VALID,917.975,VALID,0,VALID,100,VALID,-0.0679233,VALID,20.7418,VALID,38,VALID,0.0230469,
2007-04-22, 00:11:00,VALID,917.98,VALID,0,VALID,100,VALID,-0.0169808,VALID,20.7153,VALID,38,VALID,0.21439,
2007-04-22, 00:12:00,VALID,917.977,VALID,0,VALID,100,VALID,0,VALID,20.6798,VALID,38,VALID,0.101953,
2007-04-22, 00:13:00,VALID,917.981,VALID,0,VALID,100,VALID,-0.0679233,VALID,20.6633,VALID,38,VALID,0,
2007-04-22, 00:14:00,VALID,917.979,VALID,0,VALID,100,VALID,-0.0169808,VALID,20.6798,VALID,38,VALID,0,
2007-04-22, 00:15:00,VALID,917.978,VALID,0,VALID,100,VALID,-0.0339617,VALID,20.6996,VALID,38,VALID,0,
2007-04-22, 00:16:00,VALID,917.972,VALID,0,VALID,100,VALID,-0.0169808,VALID,20.7153,VALID,38,VALID,0,
2007-04-22, 00:17:00,VALID,917.964,VALID,0,VALID,100,VALID,-0.0509425,VALID,20.7155,VALID,38,VALID,0,
2007-04-22, 00:18:00,VALID,917.96,VALID,0,VALID,100,VALID,-0.0509425,VALID,20.7126,VALID,38,VALID,0,
2007-04-22, 00:19:00,VALID,917.937,VALID,0,VALID,100,VALID,-0.0339617,VALID,20.7223,VALID,38,VALID,0.0162109,
2007-04-22, 00:20:00,VALID,917.936,VALID,0,VALID,100,VALID,-0.0509425,VALID,20.7353,VALID,38,VALID,0,
2007-04-22, 00:21:00,VALID,917.917,VALID,0,VALID,100,VALID,-0.0849042,VALID,20.7645,VALID,38,VALID,0,
2007-04-22, 00:22:00,VALID,917.894,VALID,0,VALID,100,VALID,-0.0509425,VALID,20.7837,VALID,38,VALID,0,
2007-04-22, 00:23:00,VALID,917.873,VALID,0,VALID,100,VALID,-0.0169808,VALID,20.8034,VALID,38,VALID,0,
2007-04-22, 00:24:00,VALID,917.854,VALID,0,VALID,100,VALID,-0.0679233,VALID,20.8126,VALID,40,VALID,0.131981,
2007-04-22, 00:25:00,VALID,917.845,VALID,0,VALID,100,VALID,-0.0509425,VALID,20.8294,VALID,41,VALID,0.275254,
2007-04-22, 00:26:00,VALID,917.813,VALID,0,VALID,100,VALID,-0.0509425,VALID,20.8099,VALID,41,VALID,0.0167151,
2007-04-22, 00:27:00,VALID,917.806,VALID,0,VALID,100,VALID,-0.0339617,VALID,20.8067,VALID,41,VALID,0.201308,
2007-04-22, 00:28:00,VALID,917.809,VALID,0,VALID,100,VALID,-0.101885,VALID,20.8124,VALID,41,VALID,0.40189,
2007-04-22, 00:29:00,VALID,917.797,VALID,0,VALID,100,VALID,-0.0509425,VALID,20.8229,VALID,41,VALID,0.391369,
2007-04-22, 00:30:00,VALID,917.766,VALID,0,VALID,100,VALID,-0.0509425,VALID,20.8134,VALID,41,VALID,0.384146,
2007-04-22, 00:31:00,VALID,917.738,VALID,0,VALID,100,VALID,0,VALID,20.8229,VALID,41,VALID,0.457508,
2007-04-22, 00:32:00,VALID,917.71,VALID,0,VALID,100,VALID,-0.0339617,VALID,20.8286,VALID,42,VALID,0.516146,
2007-04-22, 00:33:00,VALID,917.69,VALID,0,VALID,100,VALID,-0.0169808,VALID,20.8386,VALID,44,VALID,0.569727,
2007-04-22, 00:34:00,VALID,917.647,VALID,0,VALID,100,VALID,-0.0339617,VALID,20.8359,VALID,46,VALID,0.676448,
2007-04-22, 00:35:00,VALID,917.62,VALID,0,VALID,100,VALID,-0.0509425,VALID,20.8164,VALID,51,VALID,0.674665,
2007-04-22, 00:36:00,VALID,917.588,VALID,0,VALID,100,VALID,-0.0509425,VALID,20.8132,VALID,56,VALID,0.666016,
2007-04-22, 00:37:00,VALID,917.572,VALID,0,VALID,100,VALID,-0.0339617,VALID,20.8164,VALID,56,VALID,0.697674,
2007-04-22, 00:38:00,VALID,917.542,VALID,0,VALID,100,VALID,-0.0679233,VALID,20.8097,VALID,50,VALID,0.780185,
2007-04-22, 00:39:00,VALID,917.515,VALID,0,VALID,100,VALID,-0.0509425,VALID,20.7964,VALID,44,VALID,1.02598,
2007-04-22, 00:40:00,VALID,917.478,VALID,0,VALID,100,VALID,0,VALID,20.7834,VALID,44,VALID,1.10664,
2007-04-22, 00:41:00,VALID,917.467,VALID,0,VALID,100,VALID,-0.0169808,VALID,20.7604,VALID,43,VALID,1.11773,
2007-04-22, 00:42:00,VALID,917.441,VALID,0,VALID,100,VALID,0,VALID,20.764,VALID,38,VALID,1.09956,
2007-04-22, 00:43:00,VALID,917.416,VALID,0,VALID,100,VALID,-0.0339617,VALID,20.7772,VALID,33,VALID,1.09012,
2007-04-22, 00:44:00,VALID,917.405,VALID,0,VALID,100,VALID,-0.0169808,VALID,20.7642,VALID,25,VALID,1.1121,
2007-04-22, 00:45:00,VALID,917.37,VALID,0,VALID,100,VALID,-0.0169808,VALID,20.7345,VALID,26,VALID,1.27453,
2007-04-22, 00:46:00,VALID,917.354,VALID,0,VALID,100,VALID,-0.0169808,VALID,20.7026,VALID,24,VALID,1.05104,
2007-04-22, 00:47:00,VALID,917.335,VALID,0,VALID,100,VALID,-0.0339617,VALID,20.6926,VALID,37,VALID,0.96875,
2007-04-22, 00:48:00,VALID,917.301,VALID,0,VALID,100,VALID,0,VALID,20.6893,VALID,33,VALID,1.23542,
2007-04-22, 00:49:00,VALID,917.284,VALID,0,VALID,100,VALID,0,VALID,20.6533,VALID,36,VALID,1.01432,
2007-04-22, 00:50:00,VALID,917.267,VALID,0,VALID,100,VALID,-0.0509425,VALID,20.6371,VALID,29,VALID,0.873402,
2007-04-22, 00:51:00,VALID,917.26,VALID,0,VALID,100,VALID,0,VALID,20.6374,VALID,21,VALID,0.705357,
2007-04-22, 00:52:00,VALID,917.25,VALID,0,VALID,100,VALID,0,VALID,20.5982,VALID,360,VALID,0.565225,
2007-04-22, 00:53:00,VALID,917.236,VALID,0,VALID,100,VALID,-0.0169808,VALID,20.5884,VALID,328,VALID,0.59375,
2007-04-22, 00:54:00,VALID,917.221,VALID,0,VALID,100,VALID,0,VALID,20.5855,VALID,323,VALID,0.453316,
2007-04-22, 00:55:00,VALID,917.213,VALID,0,VALID,100,VALID,-0.0169808,VALID,20.5819,VALID,322,VALID,0.259337,
2007-04-22, 00:56:00,VALID,917.186,VALID,0,VALID,100,VALID,0,VALID,20.5755,VALID,322,VALID,0.0614347,
2007-04-22, 00:57:00,VALID,917.161,VALID,0,VALID,100,VALID,-0.0339617,VALID,20.5857,VALID,322,VALID,0.000600962,
2007-04-22, 00:58:00,VALID,917.148,VALID,0,VALID,100,VALID,-0.0849042,VALID,20.5725,VALID,322,VALID,0,
2007-04-22, 00:59:00,VALID,917.106,VALID,0,VALID,100,VALID,-0.0169808,VALID,20.579,VALID,322,VALID,0.0649182,
2007-04-22, 01:00:00,VALID,917.08,VALID,0,VALID,100,VALID,-0.0169808,VALID,20.5762,VALID,208,VALID,0.514915,
2007-04-22, 01:01:00,VALID,917.055,VALID,0,VALID,100,VALID,-0.0339617,VALID,20.5627,VALID,187,VALID,0.434152,
2007-04-22, 01:02:00,VALID,917.023,VALID,0,VALID,100,VALID,-0.0339617,VALID,20.5498,VALID,187,VALID,0.415661,
2007-04-22, 01:03:00,VALID,917,VALID,0,VALID,100,VALID,0,VALID,20.5495,VALID,187,VALID,0.46582,
2007-04-22, 01:04:00,VALID,916.992,VALID,0,VALID,100,VALID,0,VALID,20.547,VALID,187,VALID,0.332386,
2007-04-22, 01:05:00,VALID,916.971,VALID,0,VALID,100,VALID,-0.0679233,VALID,20.54,VALID,187,VALID,0.238814,
2007-04-22, 01:06:00,VALID,916.971,VALID,0,VALID,100,VALID,-0.0169808,VALID,20.5533,VALID,187,VALID,0.255682,
2007-04-22, 01:07:00,VALID,916.956,VALID,0,VALID,100,VALID,-0.0169808,VALID,20.5527,VALID,187,VALID,0.349276,
2007-04-22, 01:08:00,VALID,916.955,VALID,0,VALID,100,VALID,0,VALID,20.5625,VALID,187,VALID,0.133152,
2007-04-22, 01:09:00,VALID,916.945,VALID,0,VALID,100,VALID,-0.0169808,VALID,20.5755,VALID,187,VALID,0,
2007-04-22, 01:10:00,VALID,916.916,VALID,0,VALID,100,VALID,-0.0169808,VALID,20.5952,VALID,187,VALID,0,
2007-04-22, 01:11:00,VALID,916.897,VALID,0,VALID,100,VALID,0,VALID,20.6022,VALID,187,VALID,0,
2007-04-22, 01:12:00,VALID,916.862,VALID,0,VALID,100,VALID,-0.0339617,VALID,20.5952,VALID,187,VALID,0,
2007-04-22, 01:13:00,VALID,916.836,VALID,0,VALID,100,VALID,-0.0169808,VALID,20.6212,VALID,187,VALID,0.110263,
2007-04-22, 01:14:00,VALID,916.818,VALID,0,VALID,100,VALID,-0.152827,VALID,20.6257,VALID,187,VALID,0.212936,
2007-04-22, 01:15:00,VALID,916.787,VALID,0,VALID,100,VALID,-0.118866,VALID,20.6225,VALID,187,VALID,0.188743,
2007-04-22, 01:16:00,VALID,916.773,VALID,0,VALID,100,VALID,-0.118866,VALID,20.6392,VALID,186,VALID,0.571801,
2007-04-22, 01:17:00,VALID,916.762,VALID,0,VALID,100,VALID,-0.101885,VALID,20.6195,VALID,22,VALID,1.00451,
2007-04-22, 01:18:00,VALID,916.747,VALID,0,VALID,100,VALID,-0.101885,VALID,20.6422,VALID,18,VALID,0.673874,
2007-04-22, 01:19:00,VALID,916.728,VALID,0,VALID,100,VALID,-0.101885,VALID,20.6549,VALID,46,VALID,0.577734,
2007-04-22, 01:20:00,VALID,916.709,VALID,0,VALID,100,VALID,-0.101885,VALID,20.6714,VALID,44,VALID,0.12391,
2007-04-22, 01:21:00,VALID,916.682,VALID,0,VALID,100,VALID,-0.101885,VALID,20.6841,VALID,44,VALID,0.171512,
2007-04-22, 01:22:00,VALID,916.654,VALID,0,VALID,100,VALID,-0.118866,VALID,20.6976,VALID,44,VALID,0.396205,
2007-04-22, 01:23:00,VALID,916.629,VALID,0,VALID,100,VALID,-0.101885,VALID,20.7106,VALID,44,VALID,0.191778,
2007-04-22, 01:24:00,VALID,916.611,VALID,0,VALID,100,VALID,-0.101885,VALID,20.6976,VALID,43,VALID,0.182413,
2007-04-22, 01:25:00,VALID,916.593,VALID,0,VALID,100,VALID,-0.135847,VALID,20.7004,VALID,41,VALID,0.1633,
2007-04-22, 01:26:00,VALID,916.58,VALID,0,VALID,100,VALID,-0.101885,VALID,20.7201,VALID,39,VALID,0.31108,
2007-04-22, 01:27:00,VALID,916.58,VALID,0,VALID,100,VALID,-0.169808,VALID,20.6974,VALID,35,VALID,0.287609,
2007-04-22, 01:28:00,VALID,916.584,VALID,0,VALID,100,VALID,-0.186789,VALID,20.7076,VALID,35,VALID,0.00944767,
2007-04-22, 01:29:00,VALID,916.567,VALID,0,VALID,100,VALID,-0.0849042,VALID,20.7093,VALID,25,VALID,0.371951,
2007-04-22, 01:30:00,VALID,916.564,VALID,0,VALID,100,VALID,-0.101885,VALID,20.6731,VALID,355,VALID,0.507068,
2007-04-22, 01:31:00,VALID,916.549,VALID,0,VALID,100,VALID,-0.0679233,VALID,20.6766,VALID,357,VALID,0.345052,
2007-04-22, 01:32:00,VALID,916.531,VALID,0,VALID,100,VALID,-0.0679233,VALID,20.6704,VALID,354,VALID,0.51875,
2007-04-22, 01:33:00,VALID,916.509,VALID,0,VALID,100,VALID,-0.0339617,VALID,20.6474,VALID,353,VALID,0.291243,
2007-04-22, 01:34:00,VALID,916.494,VALID,0,VALID,100,VALID,-0.0679233,VALID,20.6504,VALID,353,VALID,0.232515,
2007-04-22, 01:35:00,VALID,916.471,VALID,0,VALID,100,VALID,-0.0849042,VALID,20.6871,VALID,353,VALID,0.262429,
2007-04-22, 01:36:00,VALID,916.482,VALID,0,VALID,100,VALID,-0.0509425,VALID,20.6611,VALID,353,VALID,0.147507,
2007-04-22, 01:37:00,VALID,916.477,VALID,0,VALID,100,VALID,-0.0849042,VALID,20.6771,VALID,353,VALID,0.179857,
2007-04-22, 01:38:00,VALID,916.493,VALID,0,VALID,100,VALID,-0.0849042,VALID,20.7031,VALID,353,VALID,0.000181686,
2007-04-22, 01:39:00,VALID,916.498,VALID,0,VALID,100,VALID,-0.0679233,VALID,20.7228,VALID,353,VALID,0.0658736,
2007-04-22, 01:40:00,VALID,916.493,VALID,0,VALID,100,VALID,-0.0679233,VALID,20.7358,VALID,353,VALID,0,
2007-04-22, 01:41:00,VALID,916.494,VALID,0,VALID,100,VALID,-0.0679233,VALID,20.7418,VALID,353,VALID,0,
2007-04-22, 01:42:00,VALID,916.485,VALID,0,VALID,100,VALID,-0.0509425,VALID,20.7418,VALID,353,VALID,0,
2007-04-22, 01:43:00,VALID,916.479,VALID,0,VALID,100,VALID,-0.0849042,VALID,20.745,VALID,353,VALID,0,
2007-04-22, 01:44:00,VALID,916.485,VALID,0,VALID,100,VALID,-0.0509425,VALID,20.758,VALID,353,VALID,0,
2007-04-22, 01:45:00,VALID,916.508,VALID,0,VALID,100,VALID,-0.118866,VALID,20.7653,VALID,353,VALID,0,
2007-04-22, 01:46:00,VALID,916.504,VALID,0,VALID,100,VALID,-0.101885,VALID,20.7518,VALID,353,VALID,0,
2007-04-22, 01:47:00,VALID,916.503,VALID,0,VALID,100,VALID,-0.0679233,VALID,20.7477,VALID,353,VALID,0,
2007-04-22, 01:48:00,VALID,916.502,VALID,0,VALID,100,VALID,-0.0509425,VALID,20.7707,VALID,353,VALID,0.121189,
2007-04-22, 01:49:00,VALID,916.5,VALID,0,VALID,100,VALID,-0.101885,VALID,20.7734,VALID,353,VALID,0.192336,
2007-04-22, 01:50:00,VALID,916.486,VALID,0,VALID,100,VALID,-0.0339617,VALID,20.7897,VALID,353,VALID,0.328125,
2007-04-22, 01:51:00,VALID,916.487,VALID,0,VALID,100,VALID,-0.0679233,VALID,20.8091,VALID,353,VALID,0.316229,
2007-04-22, 01:52:00,VALID,916.497,VALID,0,VALID,100,VALID,-0.0849042,VALID,20.7769,VALID,355,VALID,0.317383,
2007-04-22, 01:53:00,VALID,916.489,VALID,0,VALID,100,VALID,-0.0509425,VALID,20.761,VALID,358,VALID,0.376906,
2007-04-22, 01:54:00,VALID,916.487,VALID,0,VALID,100,VALID,-0.0509425,VALID,20.7772,VALID,4,VALID,0.462936,
2007-04-22, 01:55:00,VALID,916.485,VALID,0,VALID,100,VALID,-0.0679233,VALID,20.7807,VALID,25,VALID,0.533507,
2007-04-22, 01:56:00,VALID,916.5,VALID,0,VALID,100,VALID,-0.0679233,VALID,20.7642,VALID,48,VALID,0.55814,
2007-04-22, 01:57:00,VALID,916.506,VALID,0,VALID,100,VALID,-0.0339617,VALID,20.7315,VALID,66,VALID,0.472098,
2007-04-22, 01:58:00,VALID,916.504,VALID,0,VALID,100,VALID,-0.0679233,VALID,20.7183,VALID,54,VALID,0.702567,
2007-04-22, 01:59:00,VALID,916.486,VALID,0,VALID,100,VALID,-0.0509425,VALID,20.7445,VALID,48,VALID,0.342842,
2007-04-22, 02:00:00,VALID,916.483,VALID,0,VALID,100,VALID,-0.0679233,VALID,20.7615,VALID,48,VALID,0.0830966,
2007-04-22, 02:01:00,VALID,916.477,VALID,0,VALID,100,VALID,-0.0849042,VALID,20.742,VALID,76,VALID,0.274009,
2007-04-22, 02:02:00,VALID,916.473,VALID,0,VALID,100,VALID,-0.0679233,VALID,20.7318,VALID,101,VALID,0.167151,
2007-04-22, 02:03:00,VALID,916.447,VALID,0,VALID,100,VALID,-0.0679233,VALID,20.7088,VALID,104,VALID,0.495908,
2007-04-22, 02:04:00,VALID,916.448,VALID,0,VALID,100,VALID,-0.0339617,VALID,20.6998,VALID,104,VALID,0.196039,
2007-04-22, 02:05:00,VALID,916.432,VALID,0,VALID,100,VALID,-0.0509425,VALID,20.6996,VALID,104,VALID,0.278088,
2007-04-22, 02:06:00,VALID,916.407,VALID,0,VALID,100,VALID,-0.0339617,VALID,20.7028,VALID,104,VALID,0.252232,
2007-04-22, 02:07:00,VALID,916.406,VALID,0,VALID,100,VALID,-0.0849042,VALID,20.6958,VALID,104,VALID,0.0539773,
2007-04-22, 02:08:00,VALID,916.394,VALID,0,VALID,100,VALID,-0.0339617,VALID,20.6958,VALID,104,VALID,0,
2007-04-22, 02:09:00,VALID,916.388,VALID,0,VALID,100,VALID,-0.0849042,VALID,20.699,VALID,104,VALID,0,
2007-04-22, 02:10:00,VALID,916.394,VALID,0,VALID,100,VALID,-0.101885,VALID,20.7128,VALID,104,VALID,0,
2007-04-22, 02:11:00,VALID,916.4,VALID,0,VALID,100,VALID,-0.118866,VALID,20.7261,VALID,104,VALID,0.0752841,
2007-04-22, 02:12:00,VALID,916.407,VALID,0,VALID,100,VALID,-0.0679233,VALID,20.7285,VALID,104,VALID,0.106286,
2007-04-22, 02:13:00,VALID,916.404,VALID,0,VALID,100,VALID,-0.0679233,VALID,20.748,VALID,104,VALID,0,
2007-04-22, 02:14:00,VALID,916.416,VALID,0,VALID,100,VALID,-0.0509425,VALID,20.7675,VALID,104,VALID,0,
2007-04-22, 02:15:00,VALID,916.422,VALID,0,VALID,100,VALID,-0.0679233,VALID,20.7642,VALID,104,VALID,0,
2007-04-22, 02:16:00,VALID,916.44,VALID,0,VALID,100,VALID,-0.0509425,VALID,20.7542,VALID,104,VALID,0.0918818,
2007-04-22, 02:17:00,VALID,916.455,VALID,0,VALID,100,VALID,-0.101885,VALID,20.7583,VALID,104,VALID,0.414621,
2007-04-22, 02:18:00,VALID,916.465,VALID,0,VALID,100,VALID,-0.0679233,VALID,20.7453,VALID,106,VALID,0.32758,
2007-04-22, 02:19:00,VALID,916.481,VALID,0,VALID,100,VALID,-0.0169808,VALID,20.7283,VALID,142,VALID,0.50186,
2007-04-22, 02:20:00,VALID,916.49,VALID,0,VALID,100,VALID,-0.0679233,VALID,20.712,VALID,148,VALID,0.348895,
2007-04-22, 02:21:00,VALID,916.503,VALID,0,VALID,100,VALID,-0.0339617,VALID,20.709,VALID,148,VALID,0.161659,
2007-04-22, 02:22:00,VALID,916.499,VALID,0,VALID,100,VALID,-0.0169808,VALID,20.7088,VALID,148,VALID,0.131177,
2007-04-22, 02:23:00,VALID,916.494,VALID,0,VALID,100,VALID,-0.0509425,VALID,20.7088,VALID,148,VALID,0.428486,
2007-04-22, 02:24:00,VALID,916.514,VALID,0,VALID,100,VALID,-0.0679233,VALID,20.7153,VALID,159,VALID,0.620206,
2007-04-22, 02:25:00,VALID,916.522,VALID,0,VALID,100,VALID,-0.0679233,VALID,20.7255,VALID,166,VALID,0.691034,
2007-04-22, 02:26:00,VALID,916.53,VALID,0,VALID,100,VALID,-0.0509425,VALID,20.7258,VALID,168,VALID,0.793924,
2007-04-22, 02:27:00,VALID,916.549,VALID,0,VALID,100,VALID,-0.0849042,VALID,20.7123,VALID,167,VALID,0.883345,
2007-04-22, 02:28:00,VALID,916.571,VALID,0,VALID,100,VALID,-0.0679233,VALID,20.6923,VALID,161,VALID,0.769622,
2007-04-22, 02:29:00,VALID,916.582,VALID,0,VALID,100,VALID,-0.0169808,VALID,20.6993,VALID,153,VALID,0.538491,
2007-04-22, 02:30:00,VALID,916.598,VALID,0,VALID,100,VALID,-0.0509425,VALID,20.7026,VALID,161,VALID,0.326297,
2007-04-22, 02:31:00,VALID,916.605,VALID,0,VALID,100,VALID,-0.0509425,VALID,20.7061,VALID,157,VALID,0.42168,
2007-04-22, 02:32:00,VALID,916.611,VALID,0,VALID,100,VALID,-0.0679233,VALID,20.7131,VALID,158,VALID,0.431176,
2007-04-22, 02:33:00,VALID,916.626,VALID,0,VALID,100,VALID,-0.0679233,VALID,20.6933,VALID,158,VALID,0.312691,
2007-04-22, 02:34:00,VALID,916.637,VALID,0,VALID,100,VALID,-0.0679233,VALID,20.6996,VALID,176,VALID,0.490513,
2007-04-22, 02:35:00,VALID,916.638,VALID,0,VALID,100,VALID,-0.0509425,VALID,20.6998,VALID,180,VALID,0.745808,
2007-04-22, 02:36:00,VALID,916.657,VALID,0,VALID,100,VALID,-0.0679233,VALID,20.6836,VALID,173,VALID,1.01215,
2007-04-22, 02:37:00,VALID,916.675,VALID,0,VALID,100,VALID,-0.0679233,VALID,20.6739,VALID,161,VALID,0.501359,
2007-04-22, 02:38:00,VALID,916.684,VALID,0,VALID,100,VALID,-0.0509425,VALID,20.6636,VALID,164,VALID,0.415661,
2007-04-22, 02:39:00,VALID,916.689,VALID,0,VALID,100,VALID,-0.0679233,VALID,20.6706,VALID,166,VALID,0.37534,
2007-04-22, 02:40:00,VALID,916.698,VALID,0,VALID,100,VALID,-0.0509425,VALID,20.6636,VALID,170,VALID,0.929324,
2007-04-22, 02:41:00,VALID,916.708,VALID,0,VALID,100,VALID,-0.0339617,VALID,20.6706,VALID,169,VALID,0.612847,
2007-04-22, 02:42:00,VALID,916.694,VALID,0,VALID,100,VALID,-0.0339617,VALID,20.6706,VALID,180,VALID,0.707698,
2007-04-22, 02:43:00,VALID,916.689,VALID,0,VALID,100,VALID,-0.0509425,VALID,20.6639,VALID,167,VALID,0.688045,
2007-04-22, 02:44:00,VALID,916.683,VALID,0,VALID,100,VALID,-0.0849042,VALID,20.6544,VALID,156,VALID,0.463224,
2007-04-22, 02:45:00,VALID,916.696,VALID,0,VALID,100,VALID,-0.0509425,VALID,20.6471,VALID,154,VALID,0.120994,
2007-04-22, 02:46:00,VALID,916.692,VALID,0,VALID,100,VALID,-0.0169808,VALID,20.6533,VALID,154,VALID,0.0485102,
2007-04-22, 02:47:00,VALID,916.69,VALID,0,VALID,100,VALID,-0.0339617,VALID,20.6601,VALID,154,VALID,0.105183,
2007-04-22, 02:48:00,VALID,916.691,VALID,0,VALID,100,VALID,-0.0509425,VALID,20.6739,VALID,154,VALID,0.0968339,
2007-04-22, 02:49:00,VALID,916.675,VALID,0,VALID,100,VALID,-0.0169808,VALID,20.6598,VALID,154,VALID,0,
2007-04-22, 02:50:00,VALID,916.656,VALID,0,VALID,100,VALID,-0.0509425,VALID,20.6798,VALID,154,VALID,0.00672238,
2007-04-22, 02:51:00,VALID,916.635,VALID,0,VALID,100,VALID,-0.0169808,VALID,20.6763,VALID,154,VALID,0.0145349,
2007-04-22, 02:52:00,VALID,916.618,VALID,0,VALID,100,VALID,-0.0339617,VALID,20.6863,VALID,154,VALID,0,
2007-04-22, 02:53:00,VALID,916.596,VALID,0,VALID,100,VALID,-0.0679233,VALID,20.6801,VALID,154,VALID,0.0965402,
2007-04-22, 02:54:00,VALID,916.571,VALID,0,VALID,100,VALID,-0.0339617,VALID,20.6833,VALID,154,VALID,0.191883,
2007-04-22, 02:55:00,VALID,916.553,VALID,0,VALID,100,VALID,-0.0679233,VALID,20.6833,VALID,154,VALID,0.303267,
2007-04-22, 02:56:00,VALID,916.547,VALID,0,VALID,100,VALID,-0.0679233,VALID,20.6866,VALID,154,VALID,0.328683,
2007-04-22, 02:57:00,VALID,916.557,VALID,0,VALID,100,VALID,-0.0679233,VALID,20.6898,VALID,162,VALID,0.546512,
2007-04-22, 02:58:00,VALID,916.546,VALID,0,VALID,100,VALID,-0.0679233,VALID,20.6933,VALID,175,VALID,0.447129,
2007-04-22, 02:59:00,VALID,916.573,VALID,0,VALID,100,VALID,-0.0169808,VALID,20.6898,VALID,178,VALID,0.298971,
2007-04-22, 03:00:00,VALID,916.586,VALID,0,VALID,100,VALID,-0.0679233,VALID,20.6863,VALID,179,VALID,0.0413491,
2007-04-22, 03:01:00,VALID,916.585,VALID,0,VALID,100,VALID,-0.0339617,VALID,20.6796,VALID,179,VALID,0.00111607,
2007-04-22, 03:02:00,VALID,916.614,VALID,0,VALID,100,VALID,-0.0679233,VALID,20.6931,VALID,179,VALID,0.16311,
2007-04-22, 03:03:00,VALID,916.596,VALID,0,VALID,100,VALID,-0.0169808,VALID,20.6928,VALID,179,VALID,0.172805,
2007-04-22, 03:04:00,VALID,916.58,VALID,0,VALID,100,VALID,-0.0339617,VALID,20.7028,VALID,168,VALID,0.28196,
2007-04-22, 03:05:00,VALID,916.573,VALID,0,VALID,100,VALID,-0.0509425,VALID,20.6833,VALID,154,VALID,0.56612,
2007-04-22, 03:06:00,VALID,916.558,VALID,0,VALID,100,VALID,-0.0679233,VALID,20.6766,VALID,154,VALID,0.520419,
2007-04-22, 03:07:00,VALID,916.544,VALID,0,VALID,100,VALID,-0.0679233,VALID,20.6868,VALID,154,VALID,0.319444,
2007-04-22, 03:08:00,VALID,916.547,VALID,0,VALID,100,VALID,-0.0169808,VALID,20.6796,VALID,154,VALID,0.427998,
2007-04-22, 03:09:00,VALID,916.573,VALID,0,VALID,100,VALID,-0.0169808,VALID,20.6701,VALID,155,VALID,0.47389,
2007-04-22, 03:10:00,VALID,916.594,VALID,0,VALID,100,VALID,0,VALID,20.6666,VALID,158,VALID,0.424851,
2007-04-22, 03:11:00,VALID,916.606,VALID,0,VALID,100,VALID,-0.0339617,VALID,20.6731,VALID,153,VALID,0.624256,
2007-04-22, 03:12:00,VALID,916.628,VALID,0,VALID,100,VALID,-0.0509425,VALID,20.6731,VALID,153,VALID,0.490141,
2007-04-22, 03:13:00,VALID,916.637,VALID,0,VALID,100,VALID,-0.0169808,VALID,20.6798,VALID,157,VALID,0.518229,
2007-04-22, 03:14:00,VALID,916.64,VALID,0,VALID,100,VALID,0,VALID,20.6766,VALID,159,VALID,0.586914,
2007-04-22, 03:15:00,VALID,916.645,VALID,0,VALID,100,VALID,-0.0339617,VALID,20.6636,VALID,156,VALID,0.804306,
2007-04-22, 03:16:00,VALID,916.656,VALID,0,VALID,100,VALID,-0.0169808,VALID,20.6601,VALID,150,VALID,0.606831,
2007-04-22, 03:17:00,VALID,916.663,VALID,0,VALID,100,VALID,-0.0339617,VALID,20.6609,VALID,142,VALID,0.316592,
2007-04-22, 03:18:00,VALID,916.68,VALID,0,VALID,100,VALID,-0.0339617,VALID,20.6671,VALID,153,VALID,0.311612,
2007-04-22, 03:19:00,VALID,916.672,VALID,0,VALID,100,VALID,-0.0679233,VALID,20.6741,VALID,160,VALID,0.46657,
2007-04-22, 03:20:00,VALID,916.661,VALID,0,VALID,100,VALID,-0.0509425,VALID,20.6601,VALID,172,VALID,0.271528,
2007-04-22, 03:21:00,VALID,916.677,VALID,0,VALID,100,VALID,-0.0509425,VALID,20.6474,VALID,186,VALID,0.202753,
2007-04-22, 03:22:00,VALID,916.678,VALID,0,VALID,100,VALID,-0.0509425,VALID,20.6506,VALID,186,VALID,0,
2007-04-22, 03:23:00,VALID,916.664,VALID,0,VALID,100,VALID,-0.0509425,VALID,20.6474,VALID,186,VALID,0.0849609,
2007-04-22, 03:24:00,VALID,916.67,VALID,0,VALID,100,VALID,-0.0339617,VALID,20.6476,VALID,186,VALID,0.0565476,
2007-04-22, 03:25:00,VALID,916.649,VALID,0,VALID,100,VALID,-0.0509425,VALID,20.6374,VALID,186,VALID,0,
2007-04-22, 03:26:00,VALID,916.659,VALID,0,VALID,100,VALID,-0.0339617,VALID,20.6474,VALID,186,VALID,0,
2007-04-22, 03:27:00,VALID,916.654,VALID,0,VALID,100,VALID,-0.0169808,VALID,20.6571,VALID,186,VALID,0.0133168,
2007-04-22, 03:28:00,VALID,916.674,VALID,0,VALID,100,VALID,0,VALID,20.6566,VALID,186,VALID,0,
2007-04-22, 03:29:00,VALID,916.68,VALID,0,VALID,100,VALID,-0.0339617,VALID,20.6566,VALID,186,VALID,0,
2007-04-22, 03:30:00,VALID,916.696,VALID,0,VALID,100,VALID,-0.0169808,VALID,20.6528,VALID,186,VALID,0.0012429,
2007-04-22, 03:31:00,VALID,916.702,VALID,0,VALID,100,VALID,-0.0169808,VALID,20.6531,VALID,241,VALID,0.164844,
2007-04-22, 03:32:00,VALID,916.71,VALID,0,VALID,100,VALID,-0.0339617,VALID,20.6831,VALID,277,VALID,0.288885,
2007-04-22, 03:33:00,VALID,916.704,VALID,0,VALID,100,VALID,-0.0339617,VALID,20.6953,VALID,278,VALID,0.301235,
2007-04-22, 03:34:00,VALID,916.696,VALID,0,VALID,100,VALID,-0.0339617,VALID,20.6923,VALID,340,VALID,0.469922,
2007-04-22, 03:35:00,VALID,916.68,VALID,0,VALID,100,VALID,-0.0339617,VALID,20.6955,VALID,347,VALID,0.323153,
2007-04-22, 03:36:00,VALID,916.675,VALID,0,VALID,100,VALID,0,VALID,20.7218,VALID,347,VALID,0.162157,
2007-04-22, 03:37:00,VALID,916.662,VALID,0,VALID,100,VALID,-0.0169808,VALID,20.7377,VALID,347,VALID,0,
2007-04-22, 03:38:00,VALID,916.654,VALID,0,VALID,100,VALID,-0.0169808,VALID,20.754,VALID,347,VALID,0,